Regional Weather Roundup
Issued by NWS

Home | Current Version | Previous Version | Graphics & Text | Print | Product List | Glossary Off
Versions: 1 2 3 4 5 6 7 8 9 10 11 12 13 14 15 16 17 18 19 20 21 22 23 24 25 26 27 28 29 30 31 32 33 34 35 36 37 38 39 40 41 42 43 44 45 46 47 48 49 50

428
ASUS43 KMKX 281321
RWRWI

WISCONSIN REGIONAL WEATHER ROUNDUP
NATIONAL WEATHER SERVICE MILWAUKEE/SULLIVAN WI
800 AM CDT WED SEP 28 2016

NOTE: "FAIR" INDICATES FEW OR NO CLOUDS BELOW 12,000 FEET WITH NO
SIGNIFICANT WEATHER AND/OR OBSTRUCTIONS TO VISIBILITY.

WIZ001-002-006>008-014>016-023>028-281400-
NORTHWEST WISCONSIN

CITY           SKY/WX    TMP DP  RH WIND       PRES   REMARKS
SUPERIOR ARPT  MOCLDY    53  48  83 N9        30.10R
ASHLAND        CLOUDY    53  50  89 NE15      30.06R
HAYWARD        LGT RAIN  52  49  89 N10       30.04R
SIREN          CLOUDY    52  49  88 N8        30.07R
CUMBERLAND     CLOUDY    50  46  87 N9        30.04R
RICE LAKE      CLOUDY    52  49  89 N8        30.04R
CHETEK         NOT AVBL
LADYSMITH      CLOUDY    53  52  95 N9        30.01R FOG
EAU CLAIRE     MOCLDY    54  50  86 N8        29.99R
MENOMONIE      CLOUDY    52  52 100 NW10      30.01R
NEW RICHMOND   CLOUDY    51  49  96 N9G16     30.05R
OSCEOLA        CLOUDY    52  52 100 N8        30.10R
$$

WIZ003>005-009-010-017-018-281400-
NORTH CENTRAL WISCONSIN

CITY           SKY/WX    TMP DP  RH WIND       PRES   REMARKS
MANITOWISH WTR NOT AVBL
ARBOR VITAE    PTSUNNY   52  50  93 NE8       29.98R
WOODRUFF       PTSUNNY   52  50  93 NE8       29.98R
RHINELANDER    LGT RAIN  51  51 100 VRB7      29.95R FOG
EAGLE RIVER    CLOUDY    50  49  95 NE17G24   29.96R
LAND O LAKES   CLOUDY    50  48  92 NE12      30.00R
PHILLIPS       CLOUDY    50  49  95 N10G17    29.98R
TOMAHAWK       CLOUDY    50  49  96 N3        29.96R
MEDFORD        CLOUDY   N/A N/A N/A N6        29.95R
MERRILL        CLOUDY    51  50  97 CALM      29.95R
$$

WIZ029-030-035-036-043>047-281400-
CENTRAL WISCONSIN

CITY           SKY/WX    TMP DP  RH WIND       PRES   REMARKS
WAUSAU         CLOUDY    52  48  86 N5        29.92R
MOSINEE        PTSUNNY   52  50  93 N9        29.93R
MARSHFIELD     CLOUDY    53  47  79 N10       29.93R
STEVENS POINT  CLOUDY    49  49  99 N6        29.93R
WAUPACA        CLOUDY    54  52  95 N6        29.91R
WAUTOMA        CLOUDY    52  50  93 N6        29.91R
WISC RAPIDS    CLOUDY    52  51  97 N8        29.93R
CAMP DOUGLAS   PTSUNNY   52  50  93 NW9       29.92R
$$

WIZ011>013-019>022-031-037>040-048>050-281400-
NORTHEAST WISCONSIN

CITY           SKY/WX    TMP DP  RH WIND       PRES   REMARKS
ANTIGO         CLOUDY    50  50  99 CALM      29.94R
SHAWANO        CLOUDY    52  49  89 N8        29.92R
OCONTO         NOT AVBL
STURGEON BAY   CLOUDY    53  52  96 NE5       29.89R
GREEN BAY      CLOUDY    51  51 100 N8        29.89R
MANITOWOC      LGT RAIN  51  49  92 MISG      29.87R
APPLETON       PTSUNNY   50  50 100 N6        29.88R
CLINTONVILLE   NOT AVBL
OSHKOSH        CLOUDY    51  49  92 N8        29.88R
$$

WIZ032>034-041-042-053>061-281400-
SOUTHWEST WISCONSIN

CITY           SKY/WX    TMP DP  RH WIND       PRES   REMARKS
LA CROSSE      CLOUDY    54  51  90 N9        29.96R
SPARTA         CLOUDY    50  50  99 NW7       29.95R
VIROQUA        CLOUDY    49  49 100 NW8       29.94R
BOSCOBEL       CLOUDY    53  49  86 N6        29.94R
PRAIRIE DU CHI CLOUDY    51  47  86 NW8       29.95R
PLATTEVILLE    CLOUDY    49  49 100 NW7       29.92R
$$

WIZ056-057-062-063-064-067-068-281400-
SOUTH CENTRAL WISCONSIN

CITY           SKY/WX    TMP DP  RH WIND       PRES   REMARKS
REEDSBURG      NOT AVBL
BARABOO/DELLS  CLOUDY    49  48  96 N5        29.91R FOG
LONE ROCK      CLOUDY    51  48  89 NW9       29.92R
MINERAL POINT  CLOUDY    50  50 100 NW7       29.91R
MADISON        DRIZZLE   50  49  96 N7        29.89R FOG
MIDDLETON      CLOUDY    51  51 100 NW8       29.90R
WATERTOWN      CLOUDY    50  50 100 NW8       29.87R
MONROE         CLOUDY    48  46  93 NW7G17    29.89R
JANESVILLE     CLOUDY    52  50  93 N9        29.87R
$$

WIZ051-052-058>065-066-070>072-281400-
SOUTHEAST WISCONSIN

CITY           SKY/WX    TMP DP  RH WIND       PRES   REMARKS
MILWAUKEE      CLOUDY    53  49  86 N7        29.86R
WAUKESHA       CLOUDY    48  48 100 NW6       29.87R
MILWAUKEE/TIMM PTSUNNY   50  46  87 NW5       29.86R
RACINE         LGT RAIN  52  49  89 N8        29.87R
BURLINGTON     CLOUDY    49  48  97 N6        29.86R FOG
KENOSHA        LGT RAIN  51  49  92 N7        29.86R FOG
FOND DU LAC    LGT RAIN  51  49  92 N8        29.89R FOG
SHEBOYGAN      CLOUDY    50  47  89 NW8       29.87R
WEST BEND      MOSUNNY   48  46  93 N3        29.87R
JUNEAU         CLOUDY    49  48  95 N8        29.89R
$$

LSZ147-162-281400-
LAKE SUPERIOR

STATION/POSITION TIME  TEMP    WIND        PRES    WAVE
                       AIR SEA DIR/SP/G            HT/PER
                 (UTC) (F)     (DEG/KT/KT) (MB)    (FT/S)
W MID LAKE BUOY  1250   55 52   50/ 17/ 23 1017.2R   5/ 8
DEVILS ISLAND    1300   53      10/ 18/ 21 1018.8R
SAXON HARBOR     1200   56      20/ 22/ 26 1015.9R
$$

LMZ867-665-643>646-281400-
LAKE MICHIGAN

STATION/POSITION TIME  TEMP    WIND        PRES    WAVE
                       AIR SEA DIR/SP/G            HT/PER
                 (UTC) (F)     (DEG/KT/KT) (MB)    (FT/S)
CHAMBERS ISLAND  1200   57      30/  8/ 11 1011.5R
N MID LAKE BUOY  1250   58 66  100/ 14/ 17 1012.5R   2/ 5
NORTHPORT PIER   1100   56      50/  4/  5 1010.5R
SISTER BAY       1238   54      CALM  /  3   N/A
KEWAUNEE LAKESHO 1300   52     360/  4/  8 1011.1R
SHEBOYGAN LAKESH 1300   51     330/  9/ 12 1011.3R
PORT WASHINGTON  1200   50     310/  5/  6 1011.5
ATWATER BUOY     1300   52 53  340/  8/  8 1011.3R
MILWAUKEE LAKESH 1310   51     340/  8/ 10   N/A
S MID LAKE BUOY  1250   56 69   80/  4/  6 1009.9R   1/ 3
KENOSHA   LAKESH 1300   51     360/  8/  9 1010.8R
$$

TC  - TEMPERATURE IN CELSIUS
VSB - VISIBILITY IN STATUTE MILES
WCI - WIND CHILL INDEX
HX  - HEAT INDEX





USA.gov is the U.S. government's official web portal to all federal, state and local government web resources and services.